Location: Arrodets-la-Barthe
(43.0306°N, 0.2829°E)
Time: 02:33:31
(UTC+00:00)

CAS-4A - Visible Passes

Search period start: 26 March 2023 00:00
Search period end: 05 April 2023 00:00
Orbit: 510 x 527 km, 43.0° (Epoch: 25 March)

Date Brightness Start Highest point End Pass type
(mag) Time Alt. Az. Time Alt. Az. Time Alt. Az.
26 Mar ? 04:04:50 10° SE 04:04:58 10° SE 04:05:06 10° SE visible
27 Mar ? 03:47:41 11° SSE 03:48:37 12° SE 03:50:07 10° ESE visible
28 Mar ? 03:32:16 14° SE 03:32:16 14° SE 03:34:17 10° ESE visible
28 Mar ? 05:07:29 10° SW 05:11:21 48° SSE 05:15:15 10° E visible
29 Mar ? 03:16:45 15° SE 03:16:45 15° SE 03:18:16 10° ESE visible
29 Mar ? 04:51:43 14° SW 04:54:59 53° SSE 04:58:56 10° E visible
30 Mar ? 03:01:08 14° ESE 03:01:08 14° ESE 03:02:07 10° ESE visible
30 Mar ? 04:36:05 21° SW 04:38:35 58° SSE 04:42:33 10° E visible
31 Mar ? 02:45:25 12° ESE 02:45:25 12° ESE 02:45:53 10° E visible
31 Mar ? 04:20:22 30° SW 04:22:10 63° SSE 04:26:09 10° E visible
01 Apr ? 04:04:35 43° SW 04:05:43 68° SSE 04:09:42 10° E visible
02 Apr ? 03:48:44 63° SW 03:49:14 73° SSE 03:53:13 10° E visible
03 Apr ? 03:32:51 75° SE 03:32:51 75° SE 03:36:42 10° E visible
04 Apr ? 03:16:55 55° E 03:16:55 55° E 03:20:08 10° E visible
04 Apr ? 04:51:52 10° W 04:55:52 84° SSW 04:59:53 10° E visible
